COSMOS 2483

导读

COSMOS 2483是俄罗斯(CIS,独联体)于2013年1月15日发射的人造卫星,隶属于俄罗斯/苏联历史悠久的“宇宙号”(COSMOS/Kosmos)卫星系列。该系列是全球规模最大的卫星家族,多数承担军用任务,COSMOS 2483延续系列定位,服役期间为空间任务提供支持,是该庞大卫星序列中的常规任务航天器。

Basic Information
目录编号:
39058
目录名称:
COSMOS 2483
国际标识:
2013-001B
轨道中心:
EARTH
卫星名称:
COSMOS 2483
卫星全名:
--
卫星状态:
在轨 (已飞行4990 天)
发射日期:
2013-01-15 UTC
国别 :
俄罗斯(独联体) (CIS)
星等 :
--
This satellite is enrolled in the Space Conjunction Data Service (SCDS) and the current flight risk assessment level is: No High Risk
Orbit Information
数据来源 国际轨道数据 AOE轨道数据
星历时间 2026-09-14T07:37:00+0800
5小时前
查看轨道信息
2026-09-12T23:00:00+0800
1天前
查看轨道信息
半长轴 7867.719km 7867.719km
偏心率 0.0015977 0.001594
轨道倾角 82.504° 82.505°
近地点辐角 174.710° 178.075°
升交点赤经 159.590° 160.436°
平近点角 185.416° 218.609°
近地点 1477.011km 1477.04km
远地点 1502.153km 1502.124km
周期 115.753分钟 115.753分钟
每日圈数 12.440263 12.440263
Detailed Information
使用方式:
暂无
2D Orbit Map
3D Orbit Map
Orbit Altitude Analysis Chart
Orbit Inclination Analysis Chart
Orbit Comprehensive Analysis Chart
View Comprehensive Chart
Miss Distance Evolution Trend with All Objects Subscribe to Flight Safety Assessment
Collision Probability Evolution Trend with All Objects Subscribe to Flight Safety Assessment